GW4386 Weather Reports


Display with metric or nautical units.
time (UTC)temp
F
wind
direction
speed
MPH
gust
MPH
rain 1hr
in
rain 24hr
in
rain mn
in
humidity
%
barometer
mb
20260905145103 64 275 3.0 11.0 0.01 0.30 0.02 79 1014.3
20260905145004 64 229 3.0 15.0 0.01 0.30 0.02 79 1014.3
20260905144600 63 248 4.0 15.0 0.01 0.30 0.02 78 1014.2
20260905144100 63 275 5.0 17.0 0.01 0.30 0.02 79 1014.0
20260905143559 62 223 5.0 19.0 0.01 0.30 0.02 79 1014.0
20260905143101 62 225 9.0 19.0 0.01 0.30 0.02 79 1014.0
20260905142603 63 219 7.0 27.0 0.01 0.30 0.02 75 1013.8
20260905142100 65 217 14.0 27.0 0.00 0.28 0.01 70 1013.8
20260905141628 66 205 9.0 16.0 0.00 0.28 0.01 68 1013.9
20260905141501 66 213 7.0 22.0 0.00 0.28 0.01 68 1013.7
20260905141104 67 227 10.0 22.0 0.00 0.28 0.01 68 1013.7
20260905140603 67 188 10.0 23.0 0.00 0.28 0.01 68 1013.6
20260905140502 67 238 9.0 23.0 0.00 0.28 0.01 68 1013.6
20260905140100 67 219 14.0 22.0 0.00 0.28 0.01 67 1013.7
20260905140004 67 227 15.0 22.0 0.00 0.28 0.01 66 1013.5
20260905135502 67 240 10.0 27.0 0.00 0.28 0.01 67 1013.6
20260905135101 67 223 9.0 27.0 0.00 0.28 0.01 66 1013.6
20260905135003 67 219 11.0 27.0 0.00 0.28 0.01 65 1013.6
20260905134600 68 213 13.0 33.0 0.00 0.28 0.01 65 1013.6
20260905134501 68 235 11.0 33.0 0.00 0.28 0.01 66 1013.5
20260905134102 68 197 16.0 33.0 0.00 0.28 0.01 64 1013.7
20260905133602 69 223 11.0 24.0 0.00 0.28 0.01 65 1013.7
20260905133002 69 227 9.0 19.0 0.00 0.28 0.01 66 1013.5
20260905132501 68 211 10.0 19.0 0.00 0.28 0.01 67 1013.5
20260905132100 68 209 8.0 20.0 0.00 0.28 0.01 69 1013.4
20260905131629 67 195 7.0 25.0 0.00 0.28 0.01 70 1013.4
20260905131006 68 215 14.0 25.0 0.00 0.28 0.01 69 1013.3
20260905130503 68 209 7.0 15.0 0.00 0.28 0.01 69 1013.4
20260905130111 68 225 9.0 15.0 0.00 0.28 0.01 69 1013.4
20260905130002 67 232 8.0 18.0 0.00 0.28 0.01 69 1013.4
20260905125504 68 249 8.0 23.0 0.00 0.28 0.01 68 1013.4
20260905125003 67 217 10.0 23.0 0.00 0.28 0.01 68 1013.4
20260905124502 68 211 12.0 20.0 0.00 0.28 0.01 66 1013.6
20260905124100 69 225 12.0 21.0 0.00 0.28 0.01 65 1013.5
20260905123601 68 228 8.0 21.0 0.00 0.28 0.01 67 1013.6
20260905123503 68 227 9.0 22.0 0.00 0.28 0.01 66 1013.6
20260905123109 68 217 11.0 22.0 0.00 0.28 0.01 66 1013.6
20260905123004 68 207 11.0 22.0 0.00 0.28 0.01 65 1013.6
20260905122511 68 225 9.0 21.0 0.00 0.28 0.01 65 1013.8
20260905122001 68 227 10.0 21.0 0.00 0.28 0.01 64 1013.7
20260905121600 68 239 14.0 22.0 0.00 0.28 0.01 65 1013.9
20260905121102 67 232 9.0 21.0 0.00 0.28 0.01 66 1013.7
20260905121002 67 212 10.0 19.0 0.00 0.28 0.01 66 1013.6
20260905120504 67 223 5.0 15.0 0.00 0.28 0.01 67 1013.5
20260905120000 67 269 7.0 21.0 0.00 0.28 0.01 64 1013.5
20260905115559 68 248 8.0 21.0 0.00 0.28 0.01 62 1013.4
20260905115101 68 213 8.0 18.0 0.00 0.28 0.01 63 1013.4
20260905114600 68 276 7.0 18.0 0.00 0.28 0.01 62 1013.5
20260905114100 68 228 7.0 16.0 0.00 0.28 0.01 63 1013.5
20260905113600 68 221 6.0 18.0 0.00 0.28 0.01 63 1013.5
20260905113108 68 223 8.0 20.0 0.00 0.28 0.01 63 1013.6
20260905112600 68 217 9.0 20.0 0.00 0.28 0.01 64 1013.5
20260905112100 67 232 8.0 18.0 0.00 0.28 0.01 63 1013.7
20260905111604 68 220 7.0 21.0 0.00 0.28 0.01 64 1013.6
20260905111100 67 202 7.0 23.0 0.00 0.28 0.01 66 1013.5
20260905110600 66 238 13.0 23.0 0.00 0.28 0.01 66 1013.7
20260905110059 65 221 7.0 13.0 0.00 0.28 0.01 68 1013.7
20260905105600 65 239 4.0 14.0 0.00 0.28 0.01 69 1013.6
20260905105102 65 221 8.0 14.0 0.00 0.28 0.01 69 1013.7
20260905104600 65 204 3.0 16.0 0.00 0.28 0.01 70 1013.7
20260905104100 64 229 6.0 16.0 0.00 0.28 0.01 71 1013.7
20260905103601 63 256 8.0 14.0 0.00 0.28 0.01 72 1013.9
20260905103100 63 232 4.0 12.0 0.00 0.28 0.01 73 1013.7
20260905102559 63 144 6.0 12.0 0.00 0.28 0.01 72 1013.8
20260905102100 63 256 7.0 15.0 0.00 0.28 0.01 73 1013.8
20260905101626 63 218 4.0 15.0 0.00 0.28 0.01 73 1013.7
20260905101104 64 202 4.0 15.0 0.00 0.28 0.01 72 1013.7
20260905100600 64 250 6.0 16.0 0.00 0.28 0.01 69 1013.6
20260905100101 65 202 7.0 20.0 0.00 0.28 0.01 68 1013.5
20260905100002 65 200 7.0 21.0 0.00 0.28 0.01 67 1013.5
20260905095600 65 227 9.0 21.0 0.00 0.28 0.01 66 1013.6
20260905095500 65 233 10.0 21.0 0.00 0.28 0.01 66 1013.6
20260905095002 65 193 10.0 19.0 0.00 0.28 0.01 68 1013.6
20260905094502 65 235 10.0 22.0 0.00 0.28 0.01 68 1013.7
20260905094001 65 246 10.0 22.0 0.00 0.28 0.01 68 1013.6
20260905093602 65 231 7.0 16.0 0.00 0.28 0.01 67 1013.5
20260905093102 65 186 9.0 23.0 0.00 0.28 0.01 68 1013.4
20260905092603 64 168 11.0 23.0 0.00 0.28 0.01 68 1013.3
20260905092501 64 225 13.0 23.0 0.00 0.28 0.01 69 1013.4
20260905092101 64 220 5.0 18.0 0.00 0.28 0.01 70 1013.3
20260905091624 64 205 6.0 18.0 0.00 0.28 0.01 68 1013.2
20260905091501 65 191 8.0 19.0 0.00 0.28 0.01 68 1013.2
20260905091100 65 207 7.0 19.0 0.00 0.28 0.01 69 1013.2
20260905090501 65 209 9.0 20.0 0.00 0.28 0.01 70 1013.1
20260905090003 64 234 5.0 18.0 0.00 0.28 0.01 71 1013.2
20260905085503 64 227 9.0 18.0 0.00 0.28 0.01 70 1013.3
20260905085000 64 197 7.0 18.0 0.00 0.28 0.01 71 1013.0
20260905084617 64 218 6.0 18.0 0.00 0.28 0.01 69 1013.0
20260905084001 64 243 7.0 17.0 0.00 0.28 0.01 71 1013.0
20260905083501 64 213 8.0 21.0 0.00 0.28 0.01 71 1013.0
20260905083002 64 236 7.0 21.0 0.00 0.28 0.01 71 1012.9
20260905082600 64 223 8.0 21.0 0.00 0.28 0.01 71 1012.9
20260905082504 64 285 11.0 21.0 0.00 0.28 0.01 71 1012.9
20260905082101 63 219 8.0 20.0 0.00 0.28 0.01 73 1012.8
20260905081601 63 211 8.0 20.0 0.00 0.28 0.01 74 1012.7
20260905081000 63 221 8.0 20.0 0.00 0.28 0.01 74 1012.8
20260905080501 63 223 10.0 20.0 0.00 0.28 0.01 74 1012.7
20260905080100 63 220 7.0 20.0 0.00 0.28 0.01 74 1012.7
20260905080003 63 271 6.0 19.0 0.00 0.28 0.01 74 1012.6
20260905075502 63 218 4.0 16.0 0.00 0.28 0.01 76 1012.6
20260905075101 63 234 5.0 20.0 0.00 0.28 0.01 75 1012.5
20260905074601 63 260 8.0 20.0 0.00 0.28 0.01 75 1012.4
20260905074501 63 278 9.0 20.0 0.00 0.28 0.01 75 1012.5
20260905074002 63 200 7.0 24.0 0.00 0.28 0.01 76 1012.2
20260905073601 62 269 10.0 24.0 0.00 0.28 0.01 75 1012.3
20260905073003 63 220 10.0 22.0 0.00 0.28 0.01 76 1012.1
20260905072501 63 218 6.0 17.0 0.00 0.28 0.01 78 1012.2
20260905072001 62 312 8.0 17.0 0.00 0.28 0.01 77 1012.1
20260905071603 62 215 8.0 22.0 0.00 0.28 0.01 78 1012.0
20260905071103 62 235 10.0 22.0 0.00 0.28 0.01 78 1012.1
20260905070601 62 205 6.0 18.0 0.00 0.28 0.01 79 1011.9
20260905070113 62 273 6.0 17.0 0.00 0.28 0.01 79 1011.9
20260905065559 62 215 6.0 18.0 0.00 0.28 0.01 80 1011.8
20260905065100 61 223 7.0 17.0 0.00 0.28 0.01 81 1011.7
20260905064601 61 242 9.0 17.0 0.00 0.28 0.01 81 1011.6
20260905064100 61 225 7.0 19.0 0.00 0.28 0.01 82 1011.6
20260905063602 61 248 9.0 19.0 0.00 0.28 0.01 82 1011.5
20260905063101 61 220 9.0 18.0 0.00 0.28 0.01 82 1011.4
20260905062559 61 228 9.0 16.0 0.00 0.28 0.01 82 1011.3
20260905062059 60 213 5.0 16.0 0.00 0.28 0.01 83 1011.2
20260905061617 60 248 7.0 21.0 0.00 0.28 0.01 83 1011.2
20260905061059 60 221 11.0 21.0 0.00 0.28 0.01 84 1011.3
20260905060601 60 207 6.0 17.0 0.00 0.28 0.01 84 1011.2
20260905060100 60 223 9.0 17.0 0.00 0.28 0.01 85 1011.2
20260905055600 60 246 6.0 16.0 0.00 0.28 0.01 85 1011.2
20260905055059 59 246 6.0 23.0 0.00 0.28 0.01 86 1011.2
20260905054603 59 221 10.0 23.0 0.00 0.28 0.01 86 1011.1
20260905054100 59 230 7.0 17.0 0.00 0.28 0.01 86 1011.1
20260905053600 59 204 8.0 18.0 0.00 0.28 0.01 86 1011.1
20260905053112 59 223 11.0 18.0 0.00 0.28 0.01 86 1011.0
20260905052602 58 217 6.0 18.0 0.00 0.28 0.01 86 1011.0
20260905052100 58 238 8.0 23.0 0.00 0.28 0.01 86 1010.9
20260905051559 58 190 8.0 23.0 0.00 0.28 0.01 87 1010.9
20260905051100 58 176 5.0 16.0 0.00 0.28 0.01 87 1010.8
20260905050559 58 219 8.0 15.0 0.00 0.28 0.01 87 1010.7
20260905050100 58 213 7.0 16.0 0.00 0.28 0.01 87 1010.7
20260905045559 57 258 6.0 16.0 0.00 0.28 0.01 87 1010.7
20260905045059 57 225 6.0 14.0 0.00 0.28 0.01 87 1010.6
20260905044600 57 234 5.0 19.0 0.00 0.28 0.01 87 1010.5
20260905044058 57 167 5.0 19.0 0.00 0.28 0.01 87 1010.4
20260905043600 57 244 7.0 16.0 0.00 0.28 0.01 87 1010.4
20260905043100 57 269 5.0 16.0 0.00 0.28 0.01 87 1010.3
20260905042603 57 220 7.0 16.0 0.00 0.28 0.01 86 1010.4
20260905042059 57 191 6.0 15.0 0.00 0.28 0.01 87 1010.3
20260905041600 57 218 5.0 16.0 0.00 0.28 0.01 86 1010.3
20260905041059 57 277 7.0 16.0 0.00 0.28 0.01 86 1010.1
20260905040559 57 230 5.0 15.0 0.00 0.28 0.01 86 1010.0
20260905040100 57 209 5.0 14.0 0.00 0.28 0.01 86 1010.1
20260905040002 57 211 7.0 14.0 0.00 0.28 0.01 86 1010.0
20260905035501 57 237 7.0 12.0 0.00 0.28 0.01 86 1009.9
20260905035002 58 202 4.0 12.0 0.00 0.28 0.01 86 1009.9
20260905034601 58 221 5.0 12.0 0.00 0.28 0.01 86 1009.8
20260905034104 58 197 5.0 12.0 0.00 0.28 0.01 86 1009.8
20260905033601 58 294 7.0 12.0 0.00 0.28 0.01 86 1009.8
20260905033001 58 241 6.0 17.0 0.00 0.28 0.01 86 1009.7
20260905032601 58 215 4.0 17.0 0.00 0.28 0.01 86 1009.7
20260905032500 58 228 4.0 17.0 0.00 0.28 0.01 86 1009.7
20260905032103 58 234 4.0 13.0 0.00 0.28 0.01 86 1009.7
20260905031602 58 207 6.0 13.0 0.00 0.28 0.01 86 1009.7
20260905031100 58 228 8.0 14.0 0.00 0.28 0.01 86 1009.8
20260905030600 58 220 5.0 15.0 0.00 0.28 0.01 86 1009.7
20260905030104 58 215 6.0 12.0 0.00 0.28 0.01 86 1009.7
20260905025557 58 205 6.0 14.0 0.00 0.28 0.01 86 1009.7
20260905025058 58 219 7.0 14.0 0.00 0.28 0.01 86 1009.6
20260905024630 58 152 4.0 15.0 0.00 0.28 0.01 86 1009.5
20260905024059 58 228 6.0 14.0 0.00 0.28 0.01 86 1009.5
20260905023558 58 221 6.0 17.0 0.00 0.28 0.01 86 1009.5
20260905023100 58 220 9.0 18.0 0.00 0.28 0.01 86 1009.4
20260905022558 59 209 4.0 11.0 0.00 0.28 0.01 86 1009.3
20260905022057 59 227 5.0 12.0 0.00 0.28 0.01 85 1009.2
20260905021557 59 219 7.0 11.0 0.00 0.28 0.01 85 1009.2
20260905021057 59 204 4.0 10.0 0.00 0.28 0.01 85 1009.0
20260905020557 59 242 4.0 15.0 0.00 0.28 0.01 84 1008.9
20260905020058 59 182 7.0 15.0 0.00 0.28 0.01 84 1008.9
20260905015556 59 255 5.0 15.0 0.00 0.28 0.01 84 1008.8
20260905015059 59 225 6.0 15.0 0.00 0.28 0.01 84 1008.8
20260905014558 59 239 4.0 10.0 0.00 0.28 0.01 84 1008.7
20260905014059 59 273 4.0 10.0 0.00 0.28 0.01 84 1008.6
20260905013558 59 299 3.0 12.0 0.00 0.28 0.01 84 1008.7
20260905013056 59 229 4.0 12.0 0.00 0.28 0.01 84 1008.7
20260905012556 59 184 4.0 12.0 0.00 0.28 0.01 84 1008.7
20260905012058 59 243 6.0 18.0 0.00 0.28 0.01 84 1008.7
20260905011601 59 211 4.0 17.0 0.00 0.28 0.01 85 1008.6
20260905011056 60 204 4.0 17.0 0.00 0.28 0.01 85 1008.6
20260905010555 60 217 5.0 21.0 0.00 0.28 0.01 86 1008.4
20260905010101 60 230 5.0 21.0 0.00 0.28 0.01 86 1008.3
20260905005556 60 188 6.0 19.0 0.00 0.28 0.01 86 1008.4
20260905005058 60 278 6.0 19.0 0.00 0.28 0.01 86 1008.1
20260905004601 60 223 6.0 11.0 0.00 0.28 0.01 86 1007.9
20260905004059 60 240 3.0 12.0 0.00 0.28 0.01 86 1007.9
20260905003556 60 188 4.0 12.0 0.00 0.28 0.01 87 1007.8
20260905003057 60 303 5.0 16.0 0.00 0.28 0.01 87 1007.9
20260905002556 60 259 6.0 16.0 0.00 0.28 0.01 87 1008.0
20260905002057 60 168 3.0 16.0 0.00 0.28 0.01 88 1008.0
20260905001556 60 173 5.0 11.0 0.00 0.28 0.01 88 1007.9
20260905001055 60 205 6.0 13.0 0.00 0.28 0.01 88 1007.8
20260905000557 60 248 3.0 13.0 0.00 0.28 0.01 88 1007.6
20260905000056 60 230 6.0 15.0 0.00 0.28 0.01 88 1007.5
20260904235557 60 216 7.0 15.0 0.00 0.28 0.01 88 1007.3
20260904235058 60 233 3.0 14.0 0.00 0.28 0.01 88 1007.1
20260904234557 60 202 5.0 14.0 0.00 0.28 0.01 88 1007.0
20260904234056 60 142 4.0 11.0 0.00 0.28 0.01 88 1006.9
20260904233558 60 229 5.0 11.0 0.00 0.28 0.01 88 1007.0
20260904233104 60 226 3.0 10.0 0.00 0.28 0.01 89 1007.1
20260904232558 60 168 5.0 10.0 0.00 0.28 0.01 89 1007.1
20260904232057 61 236 3.0 10.0 0.00 0.28 0.01 88 1006.8
20260904231558 61 214 3.0 10.0 0.00 0.28 0.01 88 1006.8
20260904231101 61 248 2.0 12.0 0.00 0.28 0.01 88 1006.8
20260904230558 61 237 3.0 15.0 0.00 0.28 0.01 88 1006.6
20260904230058 61 213 5.0 14.0 0.01 0.28 0.01 88 1006.6
20260904225557 61 215 3.0 14.0 0.02 0.28 0.01 88 1006.7
20260904225057 62 225 7.0 14.0 0.02 0.28 0.01 88 1006.6
20260904224555 62 152 5.0 12.0 0.02 0.28 0.01 88 1006.5
20260904224057 62 223 4.0 12.0 0.02 0.28 0.01 88 1006.4
20260904223557 62 211 3.0 14.0 0.14 0.28 0.01 88 1006.3
20260904223100 62 250 5.0 14.0 0.15 0.28 0.01 88 1006.3
20260904222557 62 216 4.0 16.0 0.15 0.28 0.01 88 1006.2
20260904222057 62 221 5.0 19.0 0.15 0.28 0.01 88 1006.0
20260904221604 62 140 5.0 9.0 0.15 0.28 0.01 88 1006.0
20260904221057 62 219 4.0 11.0 0.15 0.28 0.01 88 1006.0
20260904220556 62 202 6.0 12.0 0.14 0.28 0.00 88 1005.9
20260904215558 62 182 3.0 12.0 0.13 0.28 0.28 88 1005.6
20260904215058 62 205 3.0 12.0 0.13 0.28 0.28 88 1005.6
20260904214607 62 257 2.0 7.0 0.13 0.28 0.27 88 1005.7
20260904214058 62 202 5.0 7.0 0.13 0.28 0.27 88 1005.7
20260904213559 62 336 2.0 6.0 0.01 0.17 0.15 88 1005.7
20260904213058 62 230 2.0 7.0 0.00 0.16 0.14 88 1005.3
20260904212558 62 206 3.0 7.0 0.00 0.16 0.14 88 1005.2
20260904212102 62 210 3.0 5.0 0.00 0.16 0.14 88 1005.1
20260904211605 62 174 2.0 4.0 0.00 0.16 0.14 88 1005.2
20260904211058 62 191 1.0 7.0 0.00 0.16 0.14 88 1005.2
20260904210603 62 211 3.0 7.0 0.00 0.16 0.14 88 1005.2
20260904210059 62 198 2.0 5.0 0.00 0.16 0.14 88 1005.2
20260904205558 62 209 1.0 6.0 0.00 0.16 0.14 88 1005.3
20260904205057 63 215 2.0 6.0 0.00 0.16 0.14 88 1005.6
20260904204557 63 211 3.0 7.0 0.00 0.16 0.14 88 1005.6
20260904204101 63 209 3.0 7.0 0.00 0.16 0.14 88 1005.6
20260904203558 63 223 3.0 7.0 0.00 0.16 0.14 88 1005.5
20260904203058 63 207 2.0 7.0 0.00 0.16 0.14 88 1005.6
20260904202557 63 234 2.0 13.0 0.00 0.16 0.14 88 1005.6
20260904202100 63 240 7.0 13.0 0.00 0.16 0.14 88 1005.7
20260904201603 63 211 4.0 12.0 0.00 0.16 0.14 88 1005.7
20260904201057 63 216 5.0 11.0 0.00 0.16 0.14 88 1005.6
20260904200557 63 194 6.0 10.0 0.00 0.16 0.14 88 1005.7
20260904200100 63 236 4.0 15.0 0.00 0.16 0.14 88 1005.6
20260904195557 63 256 4.0 11.0 0.00 0.17 0.14 88 1005.8
20260904195058 63 207 6.0 15.0 0.00 0.17 0.14 88 1005.8
20260904194603 63 188 7.0 15.0 0.00 0.17 0.14 88 1005.8
20260904194057 63 237 6.0 15.0 0.00 0.17 0.14 88 1005.6
20260904193559 63 209 6.0 12.0 0.00 0.17 0.14 88 1005.6
20260904193059 64 195 5.0 10.0 0.00 0.17 0.14 88 1005.4
20260904192558 64 219 5.0 12.0 0.00 0.17 0.14 88 1005.6
20260904192059 64 241 4.0 14.0 0.00 0.17 0.14 88 1005.5
20260904191559 64 267 5.0 11.0 0.00 0.17 0.14 88 1005.8
20260904191058 64 214 4.0 11.0 0.00 0.17 0.14 88 1005.5
20260904190558 64 214 6.0 11.0 0.00 0.17 0.14 88 1005.3
20260904190059 64 253 4.0 11.0 0.00 0.17 0.14 88 1005.2
20260904185558 64 248 5.0 11.0 0.00 0.17 0.14 88 1005.0
20260904185058 64 254 4.0 10.0 0.00 0.17 0.14 88 1005.0
20260904184605 64 209 6.0 10.0 0.00 0.17 0.14 88 1004.8
20260904184058 64 212 5.0 11.0 0.00 0.17 0.14 88 1004.9
20260904183557 64 177 4.0 12.0 0.00 0.17 0.14 88 1004.8
20260904183057 64 207 5.0 11.0 0.00 0.17 0.14 88 1004.6
20260904182600 64 202 5.0 11.0 0.00 0.17 0.14 88 1004.5
20260904182057 64 213 4.0 12.0 0.00 0.17 0.14 88 1004.5
20260904181557 64 221 5.0 12.0 0.00 0.17 0.14 88 1004.5
20260904181058 64 181 6.0 17.0 0.00 0.17 0.14 88 1004.4
20260904180601 64 243 5.0 17.0 0.00 0.17 0.14 88 1004.4
20260904180106 64 225 4.0 9.0 0.00 0.17 0.14 88 1004.2
20260904175559 64 167 4.0 11.0 0.00 0.17 0.14 88 1004.2
20260904175058 64 218 5.0 15.0 0.00 0.17 0.14 88 1004.3
20260904174600 64 221 5.0 14.0 0.01 0.17 0.14 88 1004.3
20260904174058 64 180 7.0 19.0 0.10 0.17 0.14 88 1004.1
20260904173557 65 219 6.0 19.0 0.12 0.17 0.14 88 1004.0
20260904173102 65 202 4.0 10.0 0.14 0.17 0.14 88 1003.8
20260904172558 65 229 5.0 16.0 0.14 0.17 0.14 88 1003.6
20260904172058 66 232 4.0 16.0 0.14 0.17 0.14 88 1003.4
20260904171601 66 219 4.0 10.0 0.14 0.17 0.14 87 1003.4
20260904171058 66 221 3.0 11.0 0.14 0.17 0.14 87 1003.3
20260904170601 67 230 5.0 11.0 0.14 0.17 0.14 87 1003.1
20260904170059 67 188 4.0 10.0 0.14 0.17 0.14 87 1003.1
20260904165559 67 218 5.0 10.0 0.14 0.17 0.14 86 1002.8
20260904165059 68 238 6.0 18.0 0.14 0.17 0.14 86 1002.9
20260904164604 69 210 10.0 18.0 0.13 0.16 0.13 85 1003.0
20260904164059 71 237 3.0 14.0 0.04 0.06 0.04 82 1002.4
20260904163559 72 248 4.0 15.0 0.02 0.05 0.02 79 1002.1
20260904163106 73 215 7.0 21.0 0.00 0.02 0.00 75 1002.1
20260904162558 73 220 7.0 21.0 0.00 0.02 0.00 74 1001.9
20260904162059 73 223 7.0 14.0 0.00 0.02 0.00 74 1001.9
20260904161601 73 216 7.0 18.0 0.00 0.02 0.00 75 1001.8
20260904161059 73 218 8.0 18.0 0.00 0.02 0.00 75 1001.9
20260904160601 73 202 8.0 20.0 0.00 0.02 0.00 75 1002.1
20260904160100 73 211 8.0 16.0 0.00 0.02 0.00 75 1002.2
20260904155559 73 214 8.0 19.0 0.00 0.02 0.00 76 1002.4
20260904155058 73 188 8.0 19.0 0.00 0.02 0.00 76 1002.5
20260904154559 72 205 7.0 20.0 0.00 0.02 0.00 77 1002.6
20260904154058 72 166 7.0 20.0 0.00 0.02 0.00 77 1002.7
20260904153558 72 230 8.0 15.0 0.00 0.02 0.00 77 1002.8
20260904153105 72 159 6.0 14.0 0.00 0.02 0.00 78 1002.9
20260904152559 72 208 7.0 16.0 0.00 0.02 0.00 78 1003.2
20260904152059 72 207 5.0 18.0 0.00 0.02 0.00 78 1003.1
20260904151558 72 216 7.0 18.0 0.00 0.02 0.00 78 1003.3
20260904151059 71 200 7.0 13.0 0.00 0.02 0.00 78 1003.5
20260904150559 71 214 6.0 14.0 0.00 0.02 0.00 78 1003.7
20260904150058 71 219 5.0 14.0 0.00 0.02 0.00 78 1003.9
20260904145558 71 140 6.0 13.0 0.00 0.02 0.00 78 1004.0